カタログに戻る

COSMOS 708

運用中軍事LEO
NORAD 7663·PAYLOAD·🇷🇺 Russia

打ち上げ Feb 12, 1975 から Plesetsk Cosmodrome

Loading…

次のパス (今後24時間)

TLE

最新Source: Space-Track

元期: Sep 14, 2026, 13:45 UTC

1 07663U 75012A   26257.57331934 -.00000035  00000-0  31454-4 0  9994
2 07663  69.2313 288.0113 0023739  19.4960 147.7168 12.68302520388860

AllMySatでCOSMOS 708をリアルタイム追跡

Download on the App Store